This is the latest recevied weather packets stored in our database for station/object KN6ETB-1. If no packets are shown the sender has not sent any weather packets the latest 10 day(s).
| Time | Temp. | Humidity | Pressure | Rain* | Wind** | Luminosity | Snow |
|---|---|---|---|---|---|---|---|
| 1777695870 | 15.56° C | 80% | 1008.7 hPa | 0 mm | - | 0 W/m² | - |
| 1777695567 | 15.56° C | 80% | 1008.6 hPa | 0 mm | - | 0 W/m² | - |
| 1777695266 | 16.11° C | 80% | 1008.3 hPa | 0 mm | - | 0 W/m² | - |
| 1777694962 | 16.11° C | 79% | 1008.6 hPa | 0 mm | - | 0 W/m² | - |
| 1777694659 | 16.11° C | 79% | 1008.5 hPa | 0 mm | - | 0 W/m² | - |
| 1777694355 | 16.11° C | 79% | 1008.7 hPa | 0 mm | - | 0 W/m² | - |
| 1777694051 | 16.11° C | 79% | 1008.3 hPa | 0 mm | - | 0 W/m² | - |
| 1777693749 | 16.67° C | 79% | 1008.2 hPa | 0 mm | - | 0 W/m² | - |
| 1777693448 | 16.67° C | 79% | 1008.3 hPa | 0 mm | - | 0 W/m² | - |
| 1777693146 | 16.67° C | 79% | 1008.3 hPa | 0 mm | - | 0 W/m² | - |
| 1777692843 | 16.67° C | 79% | 1008.3 hPa | 0 mm | - | 0 W/m² | - |
| 1777692539 | 16.67° C | 78% | 1008.1 hPa | 0 mm | - | 0 W/m² | - |
| 1777692235 | 16.67° C | 78% | 1008 hPa | 0 mm | - | 0 W/m² | - |
| 1777691933 | 17.22° C | 78% | 1008.1 hPa | 0 mm | - | 0 W/m² | - |
| 1777691631 | 17.22° C | 77% | 1007.9 hPa | 0 mm | - | 0 W/m² | - |
| 1777691329 | 17.78° C | 77% | 1007.8 hPa | 0 mm | - | 0 W/m² | - |
| 1777691028 | 17.78° C | 76% | 1007.9 hPa | 0 mm | - | 0 W/m² | - |
| 1777690724 | 17.78° C | 76% | 1007.9 hPa | 0 mm | - | 0 W/m² | - |
| 1777690422 | 18.33° C | 75% | 1007.7 hPa | 0 mm | - | 3 W/m² | - |
| 1777690120 | 18.89° C | 74% | 1007.9 hPa | 0 mm | - | 6 W/m² | - |
| 1777689817 | 18.89° C | 73% | 1007.7 hPa | 0 mm | - | 9 W/m² | - |
| 1777689515 | 19.44° C | 73% | 1008.1 hPa | 0 mm | - | 13 W/m² | - |
| 1777689212 | 19.44° C | 72% | 1008 hPa | 0 mm | - | 17 W/m² | - |
| 1777688910 | 20° C | 71% | 1007.9 hPa | 0 mm | - | 22 W/m² | - |
| 1777688606 | 20° C | 71% | 1007.8 hPa | 0 mm | - | 27 W/m² | - |
* Rain latest hour (hover to see other rain measurements)
** Current wind speed in m/s (hover to see current wind gust speed)